TimeEDT,TemperatureF,Dew PointF,Humidity,Sea Level PressureIn,VisibilityMPH,Wind Direction,Wind SpeedMPH,Gust SpeedMPH,PrecipitationIn,Events,Conditions,WindDirDegrees,DateUTC
12:22 AM,32.0,26.6,80,29.75,10.0,West,20.7,27.6,N/A,,Mostly Cloudy,260,2013-03-19 04:22:00
12:54 AM,30.9,24.1,76,29.78,10.0,West,17.3,27.6,N/A,,Mostly Cloudy,260,2013-03-19 04:54:00
1:54 AM,28.9,21.9,75,29.79,10.0,West,23.0,33.4,N/A,,Mostly Cloudy,270,2013-03-19 05:54:00
2:54 AM,28.0,19.9,72,29.81,10.0,West,21.9,29.9,N/A,,Overcast,270,2013-03-19 06:54:00
3:54 AM,25.0,17.1,72,29.83,10.0,West,21.9,35.7,0.00,Snow,Light Snow,270,2013-03-19 07:54:00
4:15 AM,24.8,15.8,69,29.81,10.0,West,25.3,32.2,0.00,Snow,Light Snow,270,2013-03-19 08:15:00
4:54 AM,24.1,16.0,71,29.83,10.0,West,19.6,33.4,0.00,,Mostly Cloudy,260,2013-03-19 08:54:00
5:19 AM,24.8,17.6,74,29.81,10.0,West,17.3,25.3,N/A,,Mostly Cloudy,270,2013-03-19 09:19:00
5:54 AM,25.0,16.0,69,29.85,10.0,WSW,25.3,31.1,0.00,Snow,Light Snow,250,2013-03-19 09:54:00
6:13 AM,24.8,14.0,64,29.83,10.0,WSW,32.2,38.0,0.00,,Overcast,250,2013-03-19 10:13:00
6:54 AM,24.1,14.0,65,29.86,10.0,WSW,24.2,35.7,0.00,,Overcast,250,2013-03-19 10:54:00
7:54 AM,23.0,15.1,72,29.88,10.0,WSW,23.0,28.8,N/A,,Scattered Clouds,250,2013-03-19 11:54:00
8:54 AM,23.0,14.0,68,29.87,10.0,West,27.6,34.5,0.00,Snow,Light Snow,260,2013-03-19 12:54:00
9:54 AM,24.1,15.1,69,29.87,10.0,West,25.3,33.4,0.00,Snow,Light Snow,270,2013-03-19 13:54:00
10:33 AM,24.8,15.8,69,29.85,10.0,West,25.3,40.3,0.00,,Mostly Cloudy,260,2013-03-19 14:33:00
10:54 AM,26.1,15.1,63,29.88,10.0,WSW,32.2,39.1,0.00,,Mostly Cloudy,250,2013-03-19 14:54:00
11:54 AM,27.0,15.1,61,29.90,10.0,West,24.2,42.6,N/A,,Mostly Cloudy,260,2013-03-19 15:54:00
12:54 PM,28.0,17.1,63,29.93,10.0,West,29.9,41.4,N/A,,Mostly Cloudy,260,2013-03-19 16:54:00
1:54 PM,28.9,18.0,64,29.95,10.0,WSW,32.2,38.0,N/A,,Mostly Cloudy,250,2013-03-19 17:54:00
2:54 PM,30.9,19.0,61,29.96,10.0,WSW,32.2,39.1,N/A,,Mostly Cloudy,250,2013-03-19 18:54:00
3:54 PM,32.0,19.9,61,29.96,10.0,West,28.8,39.1,N/A,,Mostly Cloudy,260,2013-03-19 19:54:00
4:54 PM,34.0,19.9,56,29.97,10.0,WSW,32.2,41.4,N/A,,Scattered Clouds,250,2013-03-19 20:54:00
5:54 PM,35.1,19.9,54,29.98,10.0,West,29.9,39.1,N/A,,Partly Cloudy,260,2013-03-19 21:54:00
6:54 PM,34.0,19.9,56,30.01,10.0,West,23.0,35.7,N/A,,Partly Cloudy,260,2013-03-19 22:54:00
7:54 PM,33.1,19.0,56,30.02,10.0,West,20.7,33.4,N/A,,Partly Cloudy,260,2013-03-19 23:54:00
8:54 PM,32.0,19.0,59,30.04,10.0,West,17.3,25.3,N/A,,Partly Cloudy,260,2013-03-20 00:54:00
9:54 PM,32.0,19.0,59,30.05,10.0,West,20.7,26.5,N/A,,Partly Cloudy,260,2013-03-20 01:54:00
10:54 PM,30.9,19.9,64,30.05,10.0,West,16.1,25.3,N/A,,Partly Cloudy,260,2013-03-20 02:54:00
11:54 PM,30.9,18.0,59,30.05,10.0,West,23.0,28.8,N/A,,Partly Cloudy,260,2013-03-20 03:54:00